Location: Knowlton
(51.2333°N, 1.2667°E)
Time: 04:31:58
(UTC+00:00)

Cosmos 1553 Rocket - Pass Details

Date: 18 April 2021
Orbit: 942 x 1007 km, 82.9° (Epoch: 06 May)

Event Time Altitude Azimuth Distance (km) Brightness Sun altitude
Exits shadow 22:39:11 59° 192° (SSW) 1,083 3.9 -25.5°
Maximum altitude 22:40:27 88° 278° (W) 951 3.8 -25.6°
Drops below altitude 10° 22:46:36 10° 10° (N) 2,682 7.1 -25.9°
Sets 22:49:06 0° 11° (N) 3,637 7.9 -26.0°
